[Date Prev][Date Next][Thread Prev][Thread Next] - [Date Index][Thread Index][Author Index]
2 line ISS Keps 5-10
- Subject: [sarex] 2 line ISS Keps 5-10
- From: "Dr Dave Larsen [ PhD ]" <doc@xxxxxxxxxxx>
- Date: Thu, 10 May 2001 06:20:16 -0700
ISS
1 25544U 98067A 01130.52066509 .00041430 00000-0 51467-3 0 9570
2 25544 51.5716 278.6095 0017539 32.3093 51.8188 15.59386954141191
----
Via the sarex mailing list at AMSAT.ORG courtesy of AMSAT-NA.
To unsubscribe, send "unsubscribe sarex" to Majordomo@amsat.org
AMSAT Home